QPF
0.01 0.01 0.01 0.01 0.01 0.00 0.00 0.00 0.00 0.00 0.01 0.01 0.01 0.01 0.02 0.03 0.02 0.02 0.02 0.02 0.02 0.02 0.02 0.02 0.03 0.03 0.04 0.04 0.05 0.05 0.05 0.04 0.03 0.02 0.01 0.01 0.02 0.01 0.01 0.01 0.03 0.04 0.02
0.01 0.01 0.01 0.01 0.01 0.00 0.00 0.00 0.00 0.01 0.01 0.01 0.01 0.01 0.02 0.02 0.02 0.02 0.02 0.02 0.03 0.03 0.03 0.03 0.04 0.04 0.04 0.05 0.06 0.05 0.05 0.05 0.04 0.02 0.02 0.02 0.02 0.02 0.01 0.01 0.01 0.02 0.01
0.03 0.04 0.03 0.02 0.02 0.01 0.01 0.01 0.02 0.02 0.01 0.01 0.01 0.01 0.01 0.02 0.02 0.02 0.02 0.03 0.02 0.02 0.03 0.03 0.03 0.04 0.04 0.05 0.06 0.07 0.06 0.06 0.05 0.04 0.03 0.03 0.03 0.03 0.02 0.01 0.01 0.01 0.01
0.06 0.08 0.07 0.04 0.04 0.04 0.04 0.04 0.04 0.03 0.03 0.02 0.02 0.02 0.02 0.01 0.02 0.02 0.02 0.02 0.03 0.03 0.03 0.03 0.04 0.04 0.04 0.05 0.06 0.08 0.08 0.08 0.07 0.06 0.04 0.03 0.04 0.05 0.04 0.02 0.01 0.01 0.00
0.04 0.06 0.06 0.05 0.06 0.08 0.08 0.06 0.05 0.04 0.04 0.04 0.04 0.03 0.02 0.01 0.01 0.02 0.02 0.02 0.02 0.04 0.04 0.03 0.03 0.04 0.04 0.05 0.05 0.06 0.07 0.07 0.07 0.06 0.05 0.04 0.05 0.06 0.06 0.04 0.02 0.01 0.01
0.06 0.05 0.06 0.06 0.06 0.07 0.10 0.10 0.06 0.03 0.02 0.02 0.02 0.01 0.01 0.01 0.02 0.02 0.02 0.02 0.02 0.02 0.02 0.02 0.02 0.03 0.03 0.03 0.04 0.04 0.04 0.05 0.04 0.04 0.03 0.02 0.01 0.02 0.04 0.04 0.04 0.03 0.02
0.05 0.04 0.04 0.04 0.06 0.06 0.06 0.07 0.06 0.04 0.03 0.02 0.01 0.02 0.02 0.03 0.04 0.04 0.03 0.02 0.02 0.02 0.02 0.02 0.02 0.02 0.03 0.02 0.03 0.02 0.02 0.03 0.03 0.04 0.04 0.02 0.01 0.01 0.03 0.03 0.03 0.03 0.02
0.07 0.07 0.04 0.07 0.12 0.11 0.09 0.09 0.08 0.07 0.05 0.03 0.02 0.02 0.03 0.03 0.04 0.04 0.04 0.03 0.03 0.02 0.01 0.01 0.01 0.02 0.03 0.03 0.03 0.03 0.02 0.01 0.01 0.02 0.03 0.04 0.02 0.02 0.03 0.03 0.03 0.03 0.02
0.09 0.11 0.08 0.04 0.11 0.15 0.15 0.13 0.12 0.09 0.05 0.03 0.02 0.02 0.01 0.02 0.03 0.03 0.03 0.03 0.02 0.01 0.01 0.01 0.01 0.01 0.01 0.02 0.03 0.03 0.03 0.02 0.01 0.01 0.02 0.03 0.04 0.03 0.04 0.04 0.03 0.03 0.02
0.06 0.07 0.08 0.06 0.05 0.07 0.10 0.11 0.09 0.06 0.04 0.02 0.01 0.01 0.01 0.01 0.01 0.01 0.02 0.02 0.01 0.01 0.01 0.01 0.01 0.01 0.01 0.00 0.01 0.01 0.01 0.01 0.01 0.01 0.01 0.01 0.02 0.03 0.04 0.03 0.03 0.03 0.03
0.08 0.07 0.09 0.08 0.08 0.07 0.07 0.05 0.05 0.04 0.03 0.02 0.01 0.01 0.01 0.01 0.01 0.01 0.02 0.02 0.02 0.02 0.01 0.01 0.01 0.01 0.02 0.01 0.01 0.00 0.00 0.00 0.00 0.01 0.01 0.01 0.01 0.03 0.03 0.04 0.03 0.04 0.04
0.23 0.11 0.06 0.06 0.10 0.12 0.10 0.08 0.06 0.05 0.04 0.03 0.03 0.02 0.02 0.02 0.02 0.02 0.02 0.02 0.02 0.02 0.01 0.01 0.01 0.01 0.01 0.01 0.01 0.01 0.00 0.00 0.00 0.00 0.01 0.01 0.01 0.02 0.03 0.04 0.03 0.02 0.02
0.12 0.11 0.06 0.05 0.04 0.05 0.07 0.09 0.08 0.06 0.04 0.03 0.03 0.02 0.01 0.01 0.01 0.02 0.02 0.02 0.02 0.01 0.01 0.01 0.01 0.01 0.01 0.01 0.01 0.01 0.00 0.00 0.00 0.00 0.01 0.02 0.03 0.05 0.07 0.06 0.04 0.04 0.04
0.06 0.05 0.05 0.04 0.03 0.03 0.03 0.03 0.03 0.03 0.02 0.01 0.01 0.01 0.01 0.01 0.01 0.01 0.01 0.02 0.02 0.01 0.01 0.01 0.01 0.01 0.01 0.01 0.01 0.01 0.01 0.01 0.01 0.01 0.01 0.03 0.07 0.12 0.09 0.06 0.04 0.04 0.04
0.08 0.06 0.06 0.05 0.03 0.02 0.02 0.02 0.01 0.01 0.01 0.01 0.01 0.01 0.01 0.02 0.02 0.02 0.02 0.02 0.02 0.02 0.01 0.01 0.01 0.01 0.01 0.01 0.01 0.01 0.01 0.01 0.01 0.01 0.03 0.04 0.06 0.07 0.05 0.04 0.04 0.04 0.04
0.07 0.06 0.05 0.05 0.04 0.03 0.02 0.02 0.02 0.02 0.02 0.02 0.02 0.02 0.01 0.01 0.02 0.02 0.02 0.02 0.02 0.02 0.02 0.01 0.01 0.01 0.01 0.01 0.01 0.01 0.01 0.01 0.02 0.02 0.03 0.03 0.03 0.04 0.05 0.05 0.04 0.04 0.03
0.04 0.05 0.05 0.07 0.06 0.05 0.04 0.04 0.05 0.05 0.06 0.05 0.04 0.04 0.04 0.04 0.04 0.03 0.03 0.03 0.03 0.02 0.01 0.01 0.01 0.01 0.01 0.01 0.01 0.01 0.01 0.01 0.02 0.02 0.03 0.03 0.03 0.03 0.04 0.04 0.05 0.04 0.04
0.05 0.04 0.03 0.03 0.03 0.04 0.04 0.04 0.05 0.05 0.05 0.05 0.05 0.06 0.06 0.06 0.06 0.06 0.05 0.05 0.03 0.02 0.01 0.01 0.01 0.01 0.01 0.01 0.01 0.01 0.01 0.01 0.01 0.01 0.02 0.02 0.03 0.03 0.04 0.05 0.07 0.07 0.07
0.03 0.03 0.03 0.03 0.03 0.04 0.04 0.04 0.04 0.04 0.04 0.03 0.02 0.03 0.04 0.05 0.04 0.05 0.04 0.03 0.03 0.02 0.01 0.01 0.01 0.01 0.00 0.01 0.01 0.01 0.02 0.04 0.04 0.03 0.03 0.03 0.03 0.04 0.05 0.07 0.09 0.10 0.09
0.02 0.03 0.03 0.03 0.04 0.05 0.05 0.05 0.06 0.05 0.04 0.03 0.03 0.03 0.04 0.05 0.04 0.05 0.05 0.05 0.04 0.04 0.03 0.02 0.01 0.01 0.01 0.01 0.01 0.02 0.02 0.02 0.03 0.04 0.04 0.05 0.06 0.07 0.06 0.06 0.05 0.06 0.06
0.01 0.02 0.03 0.03 0.03 0.05 0.06 0.05 0.05 0.05 0.04 0.03 0.03 0.03 0.03 0.03 0.02 0.02 0.02 0.03 0.04 0.04 0.05 0.03 0.01 0.01 0.01 0.01 0.01 0.01 0.01 0.01 0.02 0.02 0.02 0.03 0.03 0.03 0.03 0.03 0.03 0.03 0.04
0.01 0.01 0.02 0.02 0.02 0.02 0.03 0.04 0.03 0.02 0.02 0.02 0.01 0.01 0.02 0.02 0.01 0.01 0.01 0.02 0.03 0.04 0.04 0.03 0.02 0.01 0.01 0.01 0.01 0.01 0.01 0.01 0.02 0.02 0.02 0.02 0.03 0.03 0.03 0.03 0.03 0.03 0.03
0.03 0.03 0.03 0.02 0.02 0.02 0.02 0.03 0.03 0.02 0.02 0.01 0.01 0.01 0.01 0.01 0.01 0.01 0.01 0.02 0.02 0.02 0.03 0.01 0.01 0.01 0.01 0.01 0.01 0.01 0.02 0.02 0.02 0.02 0.02 0.03 0.03 0.03 0.03 0.03 0.03 0.03 0.03
0.04 0.03 0.03 0.02 0.02 0.02 0.02 0.03 0.02 0.02 0.01 0.01 0.01 0.01 0.01 0.01 0.01 0.01 0.01 0.01 0.01 0.01 0.02 0.01 0.01 0.01 0.01 0.01 0.01 0.02 0.02 0.02 0.02 0.02 0.02 0.03 0.03 0.04 0.04 0.04 0.03 0.03 0.04
0.05 0.04 0.03 0.03 0.03 0.03 0.03 0.03 0.03 0.02 0.01 0.01 0.01 0.01 0.01 0.01 0.01 0.01 0.01 0.01 0.01 0.01 0.01 0.01 0.01 0.01 0.01 0.01 0.02 0.02 0.02 0.02 0.03 0.03 0.03 0.04 0.03 0.03 0.03 0.03 0.04 0.05 0.06
0.03 0.04 0.03 0.03 0.03 0.04 0.04 0.04 0.03 0.02 0.01 0.01 0.01 0.01 0.02 0.02 0.02 0.01 0.01 0.01 0.01 0.01 0.01 0.01 0.02 0.01 0.01 0.02 0.03 0.03 0.03 0.03 0.03 0.04 0.04 0.04 0.04 0.03 0.03 0.03 0.05 0.07 0.07
MSLP
1012.51 1013.17 1013.79 1014.34 1014.78 1015.11 1015.33 1015.47 1015.58 1015.67 1015.78 1015.92 1016.07 1016.22 1016.34 1016.42 1016.44 1016.41 1016.34 1016.25 1016.18 1016.15 1016.17 1016.25 1016.37 1016.53 1016.68 1016.81 1016.89 1016.91 1016.84 1016.68 1016.43 1016.09 1015.66 1015.13 1014.53 1013.85 1013.12 1012.36 1011.60 1010.88 1010.23
1012.05 1012.71 1013.34 1013.90 1014.36 1014.71 1014.96 1015.13 1015.27 1015.40 1015.54 1015.70 1015.87 1016.04 1016.18 1016.28 1016.32 1016.30 1016.24 1016.17 1016.09 1016.05 1016.06 1016.11 1016.22 1016.36 1016.51 1016.66 1016.78 1016.85 1016.86 1016.80 1016.66 1016.43 1016.10 1015.67 1015.15 1014.53 1013.84 1013.11 1012.36 1011.63 1010.96
1011.65 1012.32 1012.96 1013.52 1013.99 1014.35 1014.62 1014.82 1014.98 1015.13 1015.30 1015.48 1015.67 1015.85 1016.01 1016.13 1016.19 1016.20 1016.16 1016.10 1016.04 1015.99 1015.98 1016.02 1016.10 1016.21 1016.35 1016.49 1016.63 1016.74 1016.80 1016.82 1016.77 1016.63 1016.41 1016.08 1015.65 1015.12 1014.51 1013.84 1013.14 1012.44 1011.78
1011.29 1011.98 1012.62 1013.19 1013.65 1014.01 1014.29 1014.51 1014.69 1014.86 1015.04 1015.24 1015.44 1015.64 1015.82 1015.96 1016.04 1016.08 1016.07 1016.03 1015.98 1015.94 1015.92 1015.94 1015.99 1016.07 1016.18 1016.31 1016.44 1016.55 1016.65 1016.71 1016.72 1016.67 1016.53 1016.30 1015.98 1015.55 1015.03 1014.45 1013.82 1013.18 1012.57
1010.91 1011.62 1012.26 1012.83 1013.29 1013.66 1013.94 1014.17 1014.37 1014.56 1014.76 1014.98 1015.20 1015.41 1015.61 1015.76 1015.86 1015.92 1015.93 1015.91 1015.88 1015.85 1015.83 1015.83 1015.86 1015.92 1016.00 1016.09 1016.20 1016.31 1016.41 1016.49 1016.54 1016.53 1016.47 1016.32 1016.09 1015.76 1015.35 1014.87 1014.33 1013.77 1013.22
1010.47 1011.18 1011.83 1012.39 1012.86 1013.23 1013.52 1013.77 1013.99 1014.21 1014.44 1014.67 1014.91 1015.14 1015.34 1015.50 1015.62 1015.69 1015.72 1015.72 1015.70 1015.68 1015.66 1015.67 1015.69 1015.72 1015.78 1015.85 1015.93 1016.01 1016.10 1016.18 1016.24 1016.26 1016.24 1016.16 1016.00 1015.76 1015.44 1015.06 1014.62 1014.15 1013.67
1009.94 1010.65 1011.29 1011.84 1012.31 1012.69 1013.01 1013.28 1013.54 1013.79 1014.05 1014.31 1014.57 1014.80 1015.00 1015.17 1015.28 1015.36 1015.39 1015.41 1015.41 1015.40 1015.41 1015.42 1015.45 1015.48 1015.53 1015.58 1015.64 1015.70 1015.76 1015.82 1015.87 1015.91 1015.91 1015.86 1015.75 1015.58 1015.34 1015.04 1014.69 1014.31 1013.90
1009.31 1010.00 1010.62 1011.17 1011.63 1012.03 1012.38 1012.70 1013.00 1013.30 1013.59 1013.87 1014.14 1014.38 1014.58 1014.73 1014.84 1014.91 1014.95 1014.97 1014.99 1015.02 1015.05 1015.09 1015.14 1015.20 1015.25 1015.30 1015.35 1015.40 1015.44 1015.48 1015.51 1015.53 1015.53 1015.49 1015.41 1015.28 1015.10 1014.87 1014.59 1014.28 1013.94
1008.62 1009.27 1009.86 1010.39 1010.86 1011.27 1011.66 1012.02 1012.37 1012.71 1013.04 1013.36 1013.63 1013.87 1014.06 1014.19 1014.29 1014.35 1014.39 1014.43 1014.47 1014.53 1014.61 1014.70 1014.79 1014.89 1014.97 1015.05 1015.10 1015.15 1015.18 1015.20 1015.21 1015.21 1015.19 1015.14 1015.07 1014.96 1014.81 1014.62 1014.39 1014.13 1013.85
1007.92 1008.51 1009.05 1009.56 1010.02 1010.46 1010.87 1011.28 1011.67 1012.06 1012.43 1012.76 1013.04 1013.27 1013.44 1013.57 1013.65 1013.70 1013.75 1013.81 1013.88 1013.99 1014.12 1014.27 1014.42 1014.57 1014.71 1014.82 1014.90 1014.95 1014.98 1014.98 1014.97 1014.95 1014.91 1014.85 1014.77 1014.66 1014.52 1014.36 1014.16 1013.93 1013.68
1007.24 1007.76 1008.25 1008.72 1009.17 1009.61 1010.06 1010.49 1010.93 1011.35 1011.74 1012.08 1012.37 1012.60 1012.76 1012.87 1012.94 1013.00 1013.06 1013.14 1013.27 1013.42 1013.62 1013.83 1014.05 1014.27 1014.46 1014.61 1014.72 1014.79 1014.83 1014.83 1014.80 1014.76 1014.69 1014.62 1014.52 1014.41 1014.27 1014.11 1013.93 1013.73 1013.50
1006.60 1007.04 1007.47 1007.90 1008.33 1008.77 1009.22 1009.68 1010.14 1010.58 1010.99 1011.34 1011.63 1011.85 1012.01 1012.12 1012.20 1012.27 1012.36 1012.48 1012.65 1012.86 1013.12 1013.40 1013.69 1013.96 1014.21 1014.40 1014.55 1014.64 1014.68 1014.68 1014.65 1014.59 1014.51 1014.41 1014.31 1014.18 1014.05 1013.89 1013.72 1013.53 1013.32
1005.98 1006.34 1006.70 1007.08 1007.49 1007.92 1008.37 1008.84 1009.31 1009.76 1010.17 1010.53 1010.83 1011.05 1011.22 1011.34 1011.44 1011.54 1011.67 1011.83 1012.05 1012.32 1012.63 1012.97 1013.31 1013.63 1013.91 1014.15 1014.32 1014.43 1014.48 1014.48 1014.45 1014.39 1014.30 1014.20 1014.09 1013.97 1013.83 1013.68 1013.51 1013.33 1013.13
1005.34 1005.62 1005.92 1006.25 1006.62 1007.03 1007.48 1007.94 1008.41 1008.87 1009.29 1009.65 1009.96 1010.20 1010.39 1010.54 1010.68 1010.82 1010.99 1011.21 1011.48 1011.79 1012.14 1012.52 1012.89 1013.23 1013.54 1013.79 1013.98 1014.10 1014.16 1014.18 1014.16 1014.10 1014.03 1013.94 1013.83 1013.72 1013.59 1013.45 1013.30 1013.12 1012.92
1004.63 1004.84 1005.08 1005.37 1005.71 1006.09 1006.52 1006.98 1007.44 1007.90 1008.32 1008.70 1009.03 1009.30 1009.53 1009.72 1009.91 1010.10 1010.32 1010.59 1010.89 1011.24 1011.61 1012.00 1012.38 1012.73 1013.04 1013.29 1013.49 1013.62 1013.70 1013.74 1013.74 1013.71 1013.66 1013.60 1013.52 1013.43 1013.32 1013.20 1013.06 1012.89 1012.70
1003.82 1003.96 1004.15 1004.40 1004.71 1005.07 1005.48 1005.93 1006.39 1006.84 1007.28 1007.68 1008.04 1008.35 1008.63 1008.88 1009.12 1009.37 1009.64 1009.94 1010.27 1010.63 1011.01 1011.39 1011.75 1012.09 1012.39 1012.64 1012.84 1012.99 1013.10 1013.17 1013.21 1013.22 1013.22 1013.20 1013.16 1013.11 1013.04 1012.94 1012.81 1012.65 1012.46
1002.91 1003.00 1003.14 1003.35 1003.63 1003.97 1004.36 1004.80 1005.25 1005.72 1006.17 1006.60 1007.00 1007.36 1007.69 1008.01 1008.31 1008.61 1008.92 1009.24 1009.59 1009.94 1010.30 1010.66 1011.00 1011.32 1011.60 1011.85 1012.06 1012.24 1012.39 1012.51 1012.61 1012.69 1012.75 1012.79 1012.81 1012.80 1012.76 1012.69 1012.58 1012.43 1012.24
1001.94 1001.98 1002.08 1002.25 1002.50 1002.81 1003.19 1003.61 1004.07 1004.54 1005.01 1005.47 1005.91 1006.32 1006.72 1007.09 1007.44 1007.79 1008.13 1008.47 1008.81 1009.15 1009.49 1009.82 1010.14 1010.44 1010.73 1010.99 1011.23 1011.45 1011.66 1011.85 1012.02 1012.18 1012.31 1012.42 1012.50 1012.53 1012.53 1012.48 1012.38 1012.23 1012.03
1000.99 1000.97 1001.03 1001.16 1001.37 1001.65 1002.00 1002.40 1002.85 1003.33 1003.81 1004.30 1004.78 1005.24 1005.69 1006.11 1006.51 1006.89 1007.26 1007.61 1007.95 1008.28 1008.61 1008.92 1009.23 1009.53 1009.83 1010.12 1010.41 1010.70 1010.98 1011.26 1011.52 1011.76 1011.97 1012.14 1012.27 1012.35 1012.37 1012.33 1012.23 1012.07 1011.85
1000.12 1000.04 1000.04 1000.12 1000.28 1000.52 1000.84 1001.21 1001.64 1002.10 1002.60 1003.10 1003.61 1004.12 1004.60 1005.07 1005.51 1005.93 1006.32 1006.69 1007.04 1007.37 1007.69 1008.01 1008.33 1008.65 1008.99 1009.34 1009.70 1010.07 1010.45 1010.81 1011.16 1011.48 1011.76 1011.98 1012.14 1012.24 1012.27 1012.22 1012.10 1011.92 1011.68
999.37 999.23 999.17 999.19 999.29 999.46 999.72 1000.05 1000.44 1000.89 1001.37 1001.88 1002.41 1002.94 1003.47 1003.97 1004.46 1004.91 1005.34 1005.73 1006.11 1006.46 1006.81 1007.16 1007.52 1007.90 1008.31 1008.73 1009.18 1009.64 1010.11 1010.56 1010.98 1011.36 1011.68 1011.93 1012.11 1012.19 1012.20 1012.12 1011.97 1011.76 1011.48
998.77 998.56 998.42 998.36 998.38 998.48 998.67 998.93 999.27 999.67 1000.14 1000.64 1001.18 1001.73 1002.29 1002.84 1003.37 1003.87 1004.35 1004.79 1005.22 1005.63 1006.04 1006.46 1006.89 1007.35 1007.84 1008.36 1008.90 1009.45 1009.99 1010.51 1010.99 1011.40 1011.73 1011.97 1012.12 1012.17 1012.13 1012.00 1011.80 1011.54 1011.21
998.26 997.98 997.76 997.61 997.54 997.56 997.66 997.85 998.12 998.47 998.90 999.39 999.93 1000.50 1001.10 1001.69 1002.28 1002.86 1003.41 1003.94 1004.45 1004.95 1005.45 1005.96 1006.50 1007.06 1007.64 1008.25 1008.88 1009.50 1010.10 1010.66 1011.15 1011.56 1011.86 1012.06 1012.15 1012.14 1012.03 1011.83 1011.57 1011.25 1010.88
997.77 997.43 997.13 996.90 996.74 996.66 996.68 996.78 996.99 997.29 997.68 998.16 998.70 999.30 999.94 1000.60 1001.27 1001.93 1002.58 1003.22 1003.85 1004.46 1005.08 1005.71 1006.36 1007.03 1007.71 1008.40 1009.09 1009.76 1010.39 1010.94 1011.42 1011.78 1012.03 1012.16 1012.17 1012.07 1011.88 1011.60 1011.27 1010.90 1010.49
997.23 996.83 996.47 996.16 995.92 995.77 995.71 995.75 995.90 996.16 996.52 996.99 997.56 998.19 998.89 999.63 1000.39 1001.16 1001.93 1002.70 1003.46 1004.21 1004.96 1005.71 1006.47 1007.24 1008.00 1008.76 1009.49 1010.17 1010.79 1011.32 1011.74 1012.04 1012.21 1012.25 1012.17 1011.98 1011.70 1011.35 1010.96 1010.53 1010.09
996.56 996.12 995.72 995.36 995.08 994.87 994.76 994.76 994.88 995.12 995.49 995.97 996.57 997.26 998.03 998.86 999.73 1000.62 1001.52 1002.42 1003.31 1004.19 1005.07 1005.93 1006.79 1007.63 1008.46 1009.25 1009.98 1010.66 1011.24 1011.71 1012.07 1012.29 1012.37 1012.32 1012.15 1011.88 1011.53 1011.12 1010.68 1010.22 1009.75
Thickness
5796 5794 5792 5790 5788 5785 5782 5781 5780 5778 5776 5774 5772 5770 5767 5765 5763 5761 5758 5756 5754 5752 5750 5748 5746 5745 5742 5739 5737 5734 5730 5726 5719 5717 5716 5715 5712 5710 5708 5705 5703 5701 5699
5797 5794 5790 5788 5786 5783 5781 5780 5778 5776 5775 5772 5770 5767 5765 5762 5760 5758 5755 5754 5751 5749 5747 5745 5744 5743 5740 5737 5734 5731 5728 5726 5720 5715 5713 5711 5709 5707 5705 5702 5700 5699 5697
5794 5791 5788 5785 5783 5781 5779 5778 5776 5774 5772 5769 5767 5764 5761 5759 5757 5755 5752 5750 5749 5747 5745 5743 5741 5739 5736 5734 5732 5729 5726 5725 5721 5715 5710 5709 5706 5704 5701 5699 5697 5694 5693
5791 5788 5785 5783 5782 5780 5777 5775 5773 5771 5768 5765 5763 5761 5758 5756 5754 5752 5750 5747 5745 5744 5743 5741 5739 5737 5734 5732 5729 5726 5723 5720 5716 5712 5708 5705 5703 5701 5697 5693 5690 5689 5688
5788 5785 5783 5782 5780 5777 5774 5772 5770 5767 5766 5762 5759 5757 5755 5753 5751 5749 5746 5744 5741 5739 5738 5737 5736 5735 5733 5730 5727 5723 5719 5715 5712 5708 5704 5701 5698 5695 5692 5690 5687 5685 5683
5784 5781 5780 5778 5775 5772 5770 5767 5765 5762 5760 5758 5755 5753 5750 5750 5748 5746 5742 5739 5737 5734 5732 5731 5731 5730 5729 5726 5724 5720 5717 5712 5708 5704 5701 5697 5695 5693 5690 5687 5682 5678 5676
5779 5777 5775 5773 5770 5768 5766 5762 5759 5757 5754 5752 5750 5747 5744 5743 5742 5739 5738 5735 5731 5728 5727 5725 5725 5725 5723 5720 5717 5716 5712 5710 5707 5703 5698 5696 5693 5691 5686 5682 5679 5676 5675
5773 5770 5769 5767 5764 5763 5760 5756 5754 5751 5748 5746 5744 5742 5739 5737 5736 5734 5732 5730 5726 5723 5722 5721 5719 5717 5717 5713 5710 5708 5705 5704 5702 5700 5697 5695 5693 5690 5686 5682 5678 5674 5672
5767 5764 5763 5761 5759 5757 5754 5751 5749 5745 5742 5740 5739 5736 5734 5731 5730 5728 5726 5722 5719 5716 5716 5715 5713 5710 5709 5706 5703 5700 5698 5697 5696 5695 5693 5691 5688 5685 5681 5676 5671 5666 5663
5762 5761 5758 5756 5753 5751 5749 5746 5743 5739 5736 5735 5733 5730 5728 5726 5724 5722 5719 5715 5711 5709 5709 5708 5706 5704 5701 5699 5695 5692 5690 5689 5689 5687 5686 5684 5682 5680 5677 5673 5669 5663 5659
5757 5756 5753 5750 5748 5745 5742 5739 5736 5733 5730 5727 5725 5723 5722 5719 5717 5715 5712 5709 5705 5702 5700 5699 5699 5697 5694 5692 5689 5687 5685 5683 5681 5679 5678 5677 5675 5673 5671 5669 5667 5662 5657
5750 5748 5745 5743 5741 5740 5735 5731 5728 5725 5721 5718 5717 5715 5714 5712 5711 5708 5705 5703 5700 5696 5694 5693 5691 5689 5687 5685 5682 5681 5678 5675 5673 5671 5669 5669 5667 5666 5666 5664 5662 5659 5657
5742 5739 5737 5734 5733 5731 5728 5724 5720 5718 5714 5711 5709 5707 5706 5705 5703 5702 5699 5696 5693 5690 5688 5686 5684 5682 5680 5678 5676 5673 5671 5668 5665 5662 5661 5661 5661 5660 5658 5657 5655 5653 5651
5734 5731 5729 5726 5724 5723 5720 5718 5714 5711 5708 5705 5703 5700 5699 5697 5695 5694 5691 5688 5685 5682 5679 5678 5676 5674 5672 5670 5667 5665 5663 5661 5658 5656 5655 5654 5653 5651 5649 5648 5646 5645 5642
5725 5723 5721 5720 5717 5715 5713 5712 5710 5708 5706 5701 5699 5697 5693 5690 5690 5688 5684 5680 5677 5674 5670 5668 5666 5664 5661 5660 5658 5656 5655 5653 5650 5649 5647 5645 5644 5642 5641 5640 5638 5636 5633
5716 5714 5713 5712 5710 5707 5704 5702 5704 5703 5701 5698 5696 5693 5691 5689 5686 5681 5677 5674 5671 5667 5662 5659 5657 5655 5653 5651 5650 5648 5647 5645 5643 5641 5639 5637 5635 5634 5633 5631 5630 5627 5626
5709 5707 5706 5704 5701 5698 5696 5693 5691 5692 5692 5690 5689 5687 5684 5682 5678 5674 5669 5666 5662 5658 5653 5652 5650 5648 5646 5645 5643 5641 5639 5637 5635 5633 5631 5629 5627 5626 5624 5622 5621 5619 5619
5700 5700 5698 5696 5694 5691 5689 5687 5685 5682 5680 5680 5680 5679 5677 5674 5671 5666 5662 5658 5654 5650 5648 5646 5644 5642 5639 5637 5635 5633 5631 5630 5627 5625 5623 5621 5620 5618 5616 5614 5613 5611 5610
5692 5691 5690 5688 5687 5684 5682 5680 5677 5676 5674 5672 5671 5670 5668 5665 5662 5658 5654 5651 5648 5645 5643 5640 5638 5636 5632 5630 5627 5625 5623 5621 5619 5617 5615 5613 5612 5610 5608 5607 5606 5604 5602
5685 5685 5683 5680 5678 5676 5674 5672 5669 5667 5665 5665 5663 5662 5659 5655 5652 5649 5646 5644 5642 5640 5637 5635 5633 5630 5626 5623 5620 5618 5615 5613 5611 5609 5608 5606 5605 5603 5602 5600 5599 5597 5596
5678 5677 5676 5673 5671 5669 5667 5665 5662 5660 5658 5657 5656 5656 5653 5648 5646 5643 5640 5638 5635 5634 5631 5628 5626 5624 5620 5617 5614 5611 5608 5606 5605 5604 5601 5599 5598 5596 5595 5594 5593 5592 5591
5671 5669 5668 5666 5664 5662 5660 5659 5656 5653 5650 5649 5649 5648 5645 5641 5638 5636 5634 5632 5629 5626 5624 5621 5619 5616 5614 5611 5608 5605 5603 5600 5599 5597 5595 5593 5591 5589 5588 5587 5586 5585 5584
5663 5661 5660 5658 5656 5654 5652 5650 5648 5646 5644 5642 5641 5639 5637 5633 5631 5629 5627 5625 5622 5620 5617 5614 5612 5609 5608 5605 5603 5600 5597 5595 5593 5591 5588 5586 5584 5582 5580 5579 5579 5578 5577
5656 5654 5652 5650 5648 5646 5643 5641 5639 5638 5637 5635 5633 5631 5629 5626 5624 5622 5619 5617 5615 5613 5610 5608 5605 5603 5601 5599 5597 5594 5592 5590 5588 5585 5582 5580 5577 5576 5574 5573 5572 5572 5571
5647 5645 5643 5641 5640 5638 5636 5634 5632 5631 5629 5627 5625 5623 5621 5618 5616 5613 5611 5609 5607 5605 5603 5600 5598 5596 5594 5592 5589 5587 5585 5583 5580 5578 5576 5574 5572 5570 5568 5567 5566 5566 5565
5638 5637 5635 5634 5633 5631 5629 5627 5625 5622 5620 5619 5617 5615 5612 5610 5607 5605 5602 5600 5598 5596 5594 5592 5589 5587 5585 5583 5581 5579 5577 5575 5573 5571 5569 5567 5566 5565 5563 5561 5561 5560 5560